DLH25N EDDM-EDDB

Flight info

Callsign DLH25N
Flight time 0h 42m
Altitude 29000
Route AKINI1Q AKINI Y104 MAMOR L132 RUDNO T203 TIVDA DCT ETVIS DCT NAVEK DCT GAVLI/N0423F300 T203 ATGUP ATGUP1R
Aircraft A320/M-SDE3FGHIRWY/LB1

Departure

Time 2026-05-06 13:55
Airport Munich Airport (EDDM)

Arrival

Time 2026-05-06 14:38
Airport Berlin Brandenburg Airport (EDDB)
Time Latitude Longitude Altitude Speed Heading
2026-05-06 13:31 48.35354 11.79320 1476 ft 0 kts 261°
2026-05-06 13:43 48.35357 11.79350 1481 ft 4 kts 263°
2026-05-06 13:44 48.35360 11.79390 1476 ft 4 kts 264°
2026-05-06 13:44 48.35362 11.79430 1477 ft 4 kts 278°
2026-05-06 13:44 48.35353 11.79463 1475 ft 4 kts 322°
2026-05-06 13:44 48.35336 11.79475 1478 ft 3 kts 353°
2026-05-06 13:45 48.35321 11.79477 1475 ft 0 kts 353°
2026-05-06 13:49 48.35366 11.79468 1479 ft 10 kts 355°
2026-05-06 13:49 48.35433 11.79459 1481 ft 10 kts 353°
2026-05-06 13:50 48.35496 11.79447 1485 ft 8 kts 353°
2026-05-06 13:50 48.35549 11.79438 1485 ft 9 kts 353°
2026-05-06 13:50 48.35649 11.79421 1485 ft 16 kts 353°
2026-05-06 13:50 48.35767 11.79401 1485 ft 18 kts 353°
2026-05-06 13:51 48.35889 11.79375 1475 ft 15 kts 333°
2026-05-06 13:51 48.35993 11.79334 1475 ft 16 kts 351°
2026-05-06 13:51 48.36088 11.79275 1475 ft 12 kts 284°
2026-05-06 13:51 48.36076 11.79167 1481 ft 14 kts 266°
2026-05-06 13:52 48.36068 11.78993 1479 ft 16 kts 265°
2026-05-06 13:52 48.36059 11.78835 1479 ft 14 kts 264°
2026-05-06 13:52 48.36044 11.78686 1480 ft 19 kts 261°
2026-05-06 13:52 48.36023 11.78446 1480 ft 24 kts 263°
2026-05-06 13:53 48.36005 11.78187 1473 ft 26 kts 263°
2026-05-06 13:53 48.35985 11.77924 1481 ft 24 kts 263°
2026-05-06 13:53 48.35991 11.77680 1480 ft 21 kts 316°
2026-05-06 13:53 48.36113 11.77667 1481 ft 17 kts 24°
2026-05-06 13:54 48.36199 11.77811 1481 ft 20 kts 55°
2026-05-06 13:54 48.36288 11.77983 1475 ft 21 kts 53°
2026-05-06 13:54 48.36375 11.78168 1482 ft 22 kts 65°
2026-05-06 13:54 48.36412 11.78486 1476 ft 56 kts 83°
2026-05-06 13:55 48.36484 11.79414 1479 ft 120 kts 84°
2026-05-06 13:55 48.36607 11.80910 1534 ft 163 kts 83°
2026-05-06 13:55 48.36738 11.82647 2108 ft 171 kts 83°
2026-05-06 13:55 48.36870 11.84419 2877 ft 170 kts 84°
2026-05-06 13:56 48.37165 11.86192 3387 ft 181 kts 66°
2026-05-06 13:56 48.37913 11.87786 3811 ft 194 kts 46°
2026-05-06 13:56 48.39053 11.89051 4127 ft 216 kts 32°
2026-05-06 13:56 48.40407 11.90301 4499 ft 240 kts 33°
2026-05-06 13:57 48.41887 11.91719 4951 ft 262 kts 39°
2026-05-06 13:57 48.43086 11.93783 5632 ft 271 kts 57°
2026-05-06 13:57 48.44153 11.96174 6398 ft 279 kts 58°
2026-05-06 13:57 48.45243 11.98627 7178 ft 285 kts 57°
2026-05-06 13:58 48.46557 12.00906 7952 ft 293 kts 42°
2026-05-06 13:58 48.48274 12.02621 8718 ft 300 kts 25°
2026-05-06 13:58 48.50275 12.03595 9502 ft 306 kts
2026-05-06 13:58 48.52409 12.03783 10227 ft 310 kts 358°
2026-05-06 13:59 48.54578 12.03786 10975 ft 314 kts 358°
2026-05-06 13:59 48.56796 12.03787 11507 ft 328 kts 357°
2026-05-06 13:59 48.59134 12.03786 12013 ft 340 kts 357°
2026-05-06 13:59 48.61523 12.03925 12726 ft 348 kts
2026-05-06 14:00 48.63888 12.04837 13470 ft 355 kts 20°
2026-05-06 14:00 48.66161 12.06358 14114 ft 360 kts 23°
2026-05-06 14:00 48.68459 12.07936 14724 ft 366 kts 23°
2026-05-06 14:00 48.70827 12.09562 14972 ft 383 kts 23°
2026-05-06 14:01 48.73297 12.11260 15367 ft 394 kts 23°
2026-05-06 14:01 48.75812 12.12990 15930 ft 399 kts 24°
2026-05-06 14:01 48.78344 12.14771 16536 ft 404 kts 24°
2026-05-06 14:01 48.80901 12.16610 17120 ft 409 kts 25°
2026-05-06 14:02 48.83477 12.18483 17696 ft 413 kts 25°
2026-05-06 14:02 48.86088 12.20385 18251 ft 418 kts 25°
2026-05-06 14:02 48.88716 12.22299 18762 ft 422 kts 25°
2026-05-06 14:02 48.91383 12.24221 19268 ft 426 kts 25°
2026-05-06 14:03 48.94082 12.26134 19770 ft 429 kts 24°
2026-05-06 14:03 48.96803 12.28043 20284 ft 433 kts 24°
2026-05-06 14:03 48.99547 12.29961 20778 ft 436 kts 24°
2026-05-06 14:03 49.02313 12.31899 21276 ft 439 kts 24°
2026-05-06 14:04 49.04157 12.33192 21607 ft 441 kts 24°
2026-05-06 14:04 49.06953 12.35163 22094 ft 444 kts 24°
2026-05-06 14:04 49.09766 12.37153 22579 ft 448 kts 24°
2026-05-06 14:04 49.12601 12.39165 23053 ft 451 kts 24°
2026-05-06 14:05 49.15451 12.41190 23468 ft 454 kts 24°
2026-05-06 14:05 49.18325 12.43234 23845 ft 457 kts 24°
2026-05-06 14:05 49.21216 12.45289 24227 ft 460 kts 24°
2026-05-06 14:05 49.24125 12.47362 24608 ft 463 kts 24°
2026-05-06 14:06 49.27055 12.49452 24974 ft 465 kts 24°
2026-05-06 14:06 49.29998 12.51554 25354 ft 468 kts 24°
2026-05-06 14:06 49.32927 12.53747 25742 ft 470 kts 28°
2026-05-06 14:06 49.35672 12.56497 26073 ft 473 kts 37°
2026-05-06 14:07 49.38311 12.59544 26399 ft 477 kts 37°
2026-05-06 14:07 49.40985 12.62630 26745 ft 480 kts 37°
2026-05-06 14:07 49.43722 12.65564 27078 ft 482 kts 30°
2026-05-06 14:07 49.46696 12.67948 27426 ft 483 kts 23°
2026-05-06 14:08 49.49744 12.70171 27780 ft 486 kts 24°
2026-05-06 14:08 49.52800 12.72407 28165 ft 487 kts 24°
2026-05-06 14:08 49.55859 12.74659 28509 ft 489 kts 24°
2026-05-06 14:08 49.58937 12.76937 28843 ft 492 kts 24°
2026-05-06 14:09 49.62029 12.79233 29163 ft 494 kts 23°
2026-05-06 14:09 49.65221 12.81200 29477 ft 493 kts 14°
2026-05-06 14:09 49.68542 12.82469 29725 ft 492 kts
2026-05-06 14:09 49.71918 12.83252 29787 ft 491 kts
2026-05-06 14:10 49.78629 12.84781 29779 ft 491 kts
2026-05-06 14:10 49.85388 12.86340 29781 ft 491 kts
2026-05-06 14:11 49.92135 12.87917 29775 ft 490 kts
2026-05-06 14:11 49.98878 12.89482 29794 ft 489 kts
2026-05-06 14:12 50.05613 12.91039 29803 ft 489 kts
2026-05-06 14:12 50.12351 12.92610 29810 ft 489 kts
2026-05-06 14:13 50.19083 12.94190 29840 ft 489 kts
2026-05-06 14:13 50.25788 12.95799 29811 ft 487 kts
2026-05-06 14:14 50.32221 12.99231 29814 ft 492 kts 25°
2026-05-06 14:14 50.38333 13.04077 29790 ft 494 kts 25°
2026-05-06 14:15 50.44473 13.08936 29786 ft 495 kts 25°
2026-05-06 14:15 50.50631 13.13782 29772 ft 494 kts 21°
2026-05-06 14:16 50.53888 13.15367 29767 ft 489 kts
2026-05-06 14:16 50.57257 13.15736 29769 ft 484 kts 356°
2026-05-06 14:16 50.60614 13.15731 29476 ft 479 kts 355°
2026-05-06 14:16 50.63918 13.15709 28962 ft 471 kts 355°
2026-05-06 14:17 50.67173 13.15679 28490 ft 464 kts 356°
2026-05-06 14:17 50.70378 13.15648 27990 ft 458 kts 356°
2026-05-06 14:17 50.73541 13.15621 27509 ft 451 kts 356°
2026-05-06 14:17 50.76663 13.15597 27031 ft 445 kts 356°
2026-05-06 14:18 50.79739 13.15573 26561 ft 440 kts 356°
2026-05-06 14:18 50.82783 13.15546 26104 ft 434 kts 356°
2026-05-06 14:18 50.85782 13.15520 25658 ft 429 kts 356°
2026-05-06 14:18 50.88761 13.15497 25213 ft 425 kts 356°
2026-05-06 14:19 50.91706 13.15475 24771 ft 421 kts 356°
2026-05-06 14:19 50.94625 13.15456 24338 ft 418 kts 357°
2026-05-06 14:19 50.97488 13.15440 23917 ft 415 kts 357°
2026-05-06 14:19 51.00370 13.15419 23496 ft 413 kts 357°
2026-05-06 14:20 51.03230 13.15397 23026 ft 410 kts 357°
2026-05-06 14:20 51.06070 13.15377 22537 ft 407 kts 357°
2026-05-06 14:20 51.08890 13.15357 22056 ft 403 kts 357°
2026-05-06 14:20 51.11684 13.15337 21573 ft 400 kts 357°
2026-05-06 14:21 51.14454 13.15320 21105 ft 397 kts 357°
2026-05-06 14:21 51.17202 13.15303 20645 ft 393 kts 357°
2026-05-06 14:21 51.19927 13.15283 20190 ft 390 kts 357°
2026-05-06 14:21 51.22636 13.15264 19741 ft 388 kts 357°
2026-05-06 14:22 51.25329 13.15245 19305 ft 386 kts 357°
2026-05-06 14:22 51.27984 13.15225 18875 ft 384 kts 357°
2026-05-06 14:22 51.30670 13.15206 18435 ft 382 kts 356°
2026-05-06 14:22 51.33321 13.15189 18014 ft 380 kts 356°
2026-05-06 14:23 51.35959 13.15173 17532 ft 378 kts 356°
2026-05-06 14:23 51.38584 13.15155 17052 ft 376 kts 356°
2026-05-06 14:23 51.41194 13.15135 16583 ft 375 kts 356°
2026-05-06 14:23 51.43795 13.15116 16120 ft 373 kts 356°
2026-05-06 14:24 51.46386 13.15096 15665 ft 371 kts 356°
2026-05-06 14:24 51.48965 13.15075 15211 ft 369 kts 356°
2026-05-06 14:24 51.51532 13.15054 14777 ft 368 kts 356°
2026-05-06 14:24 51.54087 13.15034 14341 ft 366 kts 356°
2026-05-06 14:25 51.56632 13.15015 13918 ft 364 kts 356°
2026-05-06 14:25 51.59158 13.14994 13485 ft 363 kts 356°
2026-05-06 14:25 51.61676 13.14976 13004 ft 361 kts 356°
2026-05-06 14:25 51.64179 13.14960 12535 ft 359 kts 356°
2026-05-06 14:26 51.66666 13.14942 12077 ft 356 kts 356°
2026-05-06 14:26 51.69130 13.14921 11629 ft 353 kts 356°
2026-05-06 14:26 51.71581 13.14902 11176 ft 351 kts 357°
2026-05-06 14:26 51.74012 13.14888 10730 ft 348 kts 357°
2026-05-06 14:27 51.76423 13.14872 10291 ft 345 kts 356°
2026-05-06 14:27 51.78818 13.14854 9907 ft 342 kts 356°
2026-05-06 14:27 51.81153 13.14843 9790 ft 328 kts 356°
2026-05-06 14:27 51.83376 13.14836 9806 ft 312 kts 356°
2026-05-06 14:28 51.85512 13.14828 9812 ft 304 kts 356°
2026-05-06 14:28 51.87619 13.14811 9809 ft 302 kts 356°
2026-05-06 14:28 51.89716 13.14785 9807 ft 301 kts 356°
2026-05-06 14:28 51.91817 13.14758 9728 ft 301 kts 356°
2026-05-06 14:29 51.93916 13.14734 9530 ft 302 kts 356°
2026-05-06 14:29 51.95997 13.14714 9130 ft 301 kts 356°
2026-05-06 14:29 51.98087 13.14701 8733 ft 300 kts 356°
2026-05-06 14:29 52.00172 13.14690 8345 ft 299 kts 356°
2026-05-06 14:30 52.02251 13.14673 7960 ft 298 kts 356°
2026-05-06 14:30 52.04322 13.14653 7579 ft 296 kts 356°
2026-05-06 14:30 52.06377 13.14643 7209 ft 294 kts 356°
2026-05-06 14:30 52.08411 13.14632 6840 ft 291 kts 356°
2026-05-06 14:31 52.10429 13.14617 6479 ft 289 kts 356°
2026-05-06 14:31 52.12428 13.14607 6113 ft 286 kts 356°
2026-05-06 14:31 52.14412 13.14595 5731 ft 284 kts 356°
2026-05-06 14:31 52.16378 13.14579 5349 ft 281 kts 356°
2026-05-06 14:32 52.18322 13.14559 4971 ft 278 kts 357°
2026-05-06 14:32 52.20245 13.14544 4597 ft 275 kts 358°
2026-05-06 14:32 52.22151 13.14533 4209 ft 273 kts 358°
2026-05-06 14:32 52.24040 13.14520 3829 ft 270 kts 359°
2026-05-06 14:33 52.25889 13.14793 3557 ft 266 kts 19°
2026-05-06 14:33 52.27338 13.16515 3305 ft 258 kts 55°
2026-05-06 14:33 52.28023 13.19168 3080 ft 250 kts 71°
2026-05-06 14:33 52.28554 13.21784 2993 ft 235 kts 69°
2026-05-06 14:34 52.29116 13.24195 2993 ft 219 kts 67°
2026-05-06 14:34 52.29667 13.26481 2823 ft 214 kts 67°
2026-05-06 14:34 52.30197 13.28685 2570 ft 202 kts 68°
2026-05-06 14:34 52.30688 13.30729 2315 ft 185 kts 67°
2026-05-06 14:35 52.31141 13.32616 2097 ft 170 kts 67°
2026-05-06 14:35 52.31561 13.34343 1839 ft 160 kts 68°
2026-05-06 14:35 52.31951 13.35990 1621 ft 151 kts 67°
2026-05-06 14:35 52.32324 13.37544 1395 ft 144 kts 66°
2026-05-06 14:36 52.32693 13.39044 1209 ft 142 kts 66°
2026-05-06 14:36 52.33028 13.40560 1027 ft 142 kts 68°
2026-05-06 14:36 52.33387 13.42037 825 ft 141 kts 66°
2026-05-06 14:36 52.33750 13.43520 651 ft 139 kts 65°
2026-05-06 14:37 52.34100 13.44991 419 ft 140 kts 66°
2026-05-06 14:37 52.34453 13.46473 258 ft 140 kts 67°
2026-05-06 14:37 52.34795 13.47908 157 ft 127 kts 68°
2026-05-06 14:37 52.35061 13.49025 154 ft 82 kts 69°
2026-05-06 14:38 52.35220 13.49699 154 ft 41 kts 68°
2026-05-06 14:38 52.35382 13.50003 154 ft 30 kts 39°
2026-05-06 14:38 52.35468 13.50114 154 ft 13 kts 39°